Tracking 19644 objects as of 25-Apr-2019
HD Live streaming from Space Station
objects crossing your sky now

FLOCK 4A 15

Track FLOCK 4A 15 now!
10-day predictions
FLOCK 4A 15 is classified as:


NORAD ID: 44100
Int'l Code: 2019-018Y
Perigee: 498.7 km
Apogee: 514.3 km
Inclination: 97.5 °
Period: 94.6 minutes
Semi major axis: 6877 km
RCS: Unknown
Launch date: April 1, 2019
Source: United States (US)
Launch site: SRIHARIKOTA (SRI)
aabbcc
Your satellite tracking list
Your tracking list is empty




NASA's NSSDC Master Catalog

Two Line Element Set (TLE):
1 44100U 19018Y   19115.13633127  .00001803  00000-0  81606-4 0  9998
2 44100  97.4616 175.5102 0011340 205.4099 154.6581 15.22143826  3617
Source of the keplerian elements: AFSPC